Weather History for Nagpur Sonegaon, India

Change the Weather History Date:

Wednesday, October 10, 2012

  Actual Average Record
Temperature  
Mean Temperature 78 °F -  
Max Temperature 92 °F 90 °F - ()
Min Temperature 65 °F 65 °F - ()
Cooling Degree Days 14    
Growing Degree Days 28 (Base 50)    
Moisture  
Dew Point 65 °F    
Average Humidity 61    
Maximum Humidity 87    
Minimum Humidity 30    
Precipitation  
Precipitation 0.00 in 0.07 in - ()
Sea Level Pressure  
Sea Level Pressure 29.81 in    
Wind  
Wind Speed 3 mph ()    
Max Wind Speed 6 mph    
Max Gust Speed -    
Visibility 2.7 miles    
Events      
T = Trace of Precipitation, MM = Missing Value Source: Averaged Metar Reports

Daily Weather History Graph

Daily Weather History Graph

Search for Another Location

Airport:

Trip Planner

Search our weather history database for the weather conditions in past years. The results will help you decide how hot, cold, wet, or windy it might be!

Date:

Astronomy

Oct. 10, 2012 Rise Set
Actual Time 6:07 AM IST 5:53 PM IST
Civil Twilight 5:45 AM IST 6:15 PM IST
Nautical Twilight 5:19 AM IST 6:41 PM IST
Astronomical Twilight 4:53 AM IST 7:07 PM IST
Moon 12:55 AM IST (10/10) 2:03 PM IST (10/10)
Length of Visible Light 12h 30m
Length of Day
11h 45m
Waning Crescent, 31% of the Moon is Illuminated
Oct 10
Waning Crescent
Oct 15
New
Oct 22
First Quarter
Oct 30
Full
Nov 7
Last Quarter

Hourly Weather History & Observations

Time (IST) Temp. Heat Index Dew Point Humidity Pressure Visibility Wind Dir Wind Speed Gust Speed Precip Events Conditions
12:10 AM 73.4 °F - 66.2 °F 78% 29.83 in 1.9 mi Calm Calm - N/A   Haze
1:10 AM 73.4 °F - 64.4 °F 73% 29.83 in 1.9 mi NNW 2.3 mph - N/A   Haze
2:10 AM 71.6 °F - 64.4 °F 78% 29.80 in - North - - N/A   Haze
2:30 AM 67 °F - 64 °F 86% 29.80 in 1 mi Calm Calm - -   Haze
3:10 AM 71.6 °F - 62.6 °F 73% 29.80 in 2.5 mi NW 3.5 mph - N/A   Haze
4:10 AM 71.6 °F - 62.6 °F 73% 29.80 in 2.5 mi NNW 4.6 mph - N/A   Haze
5:10 AM 69.8 °F - 60.8 °F 73% 29.80 in 2.5 mi NW 3.5 mph - N/A   Haze
5:30 AM 67 °F - 63 °F 83% 29.81 in 1 mi NNW 3.5 mph - -   Haze
6:10 AM 71.6 °F - 60.8 °F 69% 29.83 in 2.5 mi NNW 4.6 mph - N/A   Haze
7:10 AM 73.4 °F - 62.6 °F 69% 29.83 in 3.1 mi NNW 4.6 mph - N/A   Haze
8:10 AM 78.8 °F - 62.6 °F 57% 29.86 in 3.7 mi NNW 4.6 mph - N/A   Unknown
8:30 AM 77 °F - 64 °F 56% 29.84 in 2 mi North 4.6 mph - -  
9:10 AM 82.4 °F 83.9 °F 64.4 °F 54% 29.89 in 3.7 mi North 4.6 mph - N/A   Unknown
10:10 AM 87.8 °F 89.4 °F 64.4 °F 46% 29.89 in 3.7 mi NNE 3.5 mph - N/A   Unknown
11:10 AM 91.4 °F 94.0 °F 66.2 °F 43% 29.86 in 3.7 mi ENE 3.5 mph - N/A   Unknown
11:30 AM 89 °F - 64 °F 34% 29.78 in 2 mi NW 5.8 mph - -  
1:10 PM 95.0 °F 95.2 °F 60.8 °F 32% 29.80 in 3.7 mi ENE 5.8 mph - N/A   Unknown
2:10 PM 95.0 °F 96.0 °F 62.6 °F 34% 29.80 in 3.7 mi ENE 5.8 mph - N/A   Unknown
2:30 PM 90 °F - 63 °F 30% 29.72 in 2 mi ENE 5.8 mph - -  
3:10 PM 93.2 °F 94.1 °F 62.6 °F 36% 29.77 in 3.7 mi ENE 4.6 mph - N/A   Unknown
4:10 PM 93.2 °F 94.9 °F 64.4 °F 38% 29.77 in 3.7 mi NNE 3.5 mph - N/A   Unknown
5:10 PM 91.4 °F 93.2 °F 64.4 °F 41% 29.77 in 3.7 mi ENE 4.6 mph - N/A   Unknown
5:30 PM 85 °F - 73 °F 59% 29.73 in 2 mi ENE 2.3 mph - -  
6:10 PM 84.2 °F 88.4 °F 69.8 °F 62% 29.80 in 2.5 mi ESE 2.3 mph - N/A   Haze
7:10 PM 78.8 °F - 68.0 °F 69% 29.80 in 2.5 mi East 3.5 mph - N/A   Haze
8:30 PM 72 °F - 68 °F 83% 29.81 in 2 mi Calm Calm - -   Haze
9:10 PM 78.8 °F - 66.2 °F 65% 29.83 in 3.1 mi Calm Calm - N/A   Haze
10:10 PM 77.0 °F - 66.2 °F 69% 29.83 in 3.1 mi Calm Calm - N/A   Haze
11:10 PM 75.2 °F - 66.2 °F 73% 29.83 in 3.1 mi NW 3.5 mph - N/A   Haze
11:30 PM 70 °F - 67 °F 87% 29.82 in 2 mi NW 2.3 mph - -   Haze